This is the latest recevied weather packets stored in our database for station/object AE5HO. If no packets are shown the sender has not sent any weather packets the latest 10 day(s).
| Time | Temp. | Humidity | Pressure | Rain* | Wind** | Luminosity | Snow |
|---|---|---|---|---|---|---|---|
| 1777563854 | 16.67° C | 87% | 1016.1 hPa | 0 mm | - | 4 W/m² | - |
| 1777563550 | 16.67° C | 87% | 1015.9 hPa | 0 mm | - | 7 W/m² | - |
| 1777563249 | 16.67° C | 86% | 1016.2 hPa | 0 mm | - | 7 W/m² | - |
| 1777562947 | 16.67° C | 85% | 1016.6 hPa | 0 mm | - | 7 W/m² | - |
| 1777562642 | 17.22° C | 85% | 1017 hPa | 0 mm | - | 4 W/m² | - |
| 1777562342 | 17.22° C | 85% | 1016.7 hPa | 0 mm | - | 5 W/m² | - |
| 1777562038 | 16.67° C | 85% | 1016.1 hPa | 0 mm | - | 11 W/m² | - |
| 1777561735 | 16.67° C | 85% | 1015.5 hPa | 0 mm | - | 17 W/m² | - |
| 1777561430 | 16.67° C | 85% | 1015.6 hPa | 0 mm | - | 18 W/m² | - |
| 1777561126 | 16.67° C | 85% | 1015.7 hPa | 0 mm | - | 13 W/m² | - |
| 1777560821 | 17.22° C | 85% | 1015.7 hPa | 0 mm | - | 16 W/m² | - |
| 1777560519 | 16.67° C | 85% | 1015.6 hPa | 0 mm | - | 16 W/m² | - |
| 1777560217 | 16.67° C | 85% | 1015.4 hPa | 0 mm | - | 16 W/m² | - |
| 1777559913 | 16.67° C | 86% | 1015.4 hPa | 0 mm | - | 23 W/m² | - |
| 1777559608 | 16.67° C | 86% | 1015.2 hPa | 0 mm | - | 22 W/m² | - |
| 1777559307 | 16.67° C | 86% | 1015.3 hPa | 0 mm | - | 17 W/m² | - |
| 1777559002 | 16.67° C | 87% | 1015.3 hPa | 0 mm | - | 17 W/m² | - |
| 1777558698 | 16.67° C | 87% | 1015.1 hPa | 0 mm | - | 26 W/m² | - |
| 1777558395 | 16.67° C | 88% | 1015 hPa | 0 mm | - | 31 W/m² | - |
| 1777558090 | 16.67° C | 88% | 1014.9 hPa | 0 mm | - | 35 W/m² | - |
| 1777557787 | 16.11° C | 88% | 1014.7 hPa | 0 mm | - | 31 W/m² | - |
| 1777557484 | 16.11° C | 88% | 1014.7 hPa | 0 mm | - | 23 W/m² | - |
| 1777557180 | 16.11° C | 88% | 1014.3 hPa | 0 mm | - | 21 W/m² | - |
| 1777556876 | 16.11° C | 88% | 1014.3 hPa | 0 mm | - | 26 W/m² | - |
| 1777556572 | 16.11° C | 88% | 1014.4 hPa | 0 mm | - | 35 W/m² | - |
* Rain latest hour (hover to see other rain measurements)
** Current wind speed in m/s (hover to see current wind gust speed)